Вернуться в каталог

BRO-14

АктивенНаукаSSO
NORAD 60551·PAYLOAD·🇫🇷 France

Запущен Aug 16, 2024 с Vandenberg Space Force Base

Loading…

Ближайшие Пролёты (ближайшие 24 часа)

TLE

СвежийSource: Space-Track

Эпоха: Sep 14, 2026, 11:21 UTC

1 60551U 24149CM  26257.47304258  .00000784  00000-0  74380-4 0  9997
2 60551  97.6803 331.6246 0007390 149.3874 210.7780 14.96334965113349

Отслеживайте BRO-14 в реальном времени с AllMySat

Download on the App Store